Meacham, OR

12:31 AM PST on December 10, 2016 (GMT -0800)
Meacham

Weather History for KMEH - February, 2013

Change the Weather History Date:

Sunday, February 17, 2013

  Actual Average Record
Temperature  
Mean Temperature 28 °F -  
Max Temperature 36 °F 38 °F 54 °F (2007)
Min Temperature 18 °F 20 °F -13 °F (2006)
Degree Days  
Heating Degree Days 38    
Moisture  
Dew Point 22 °F    
Average Humidity 73    
Maximum Humidity 89    
Minimum Humidity 55    
Precipitation  
Precipitation 0.00 in - - ()
Sea Level Pressure  
Sea Level Pressure 30.12 in    
Wind  
Wind Speed 3 mph (WNW)    
Max Wind Speed 6 mph    
Max Gust Speed -    
Visibility 10 miles    
Events      
Averages and records for this station are not official NWS values.
T = Trace of Precipitation, MM = Missing Value Source: NWS Daily Summary

Daily Weather History Graph

Daily Weather History Graph

Search for Another Location

Airport or City:

Trip Planner

Search our weather history database for the weather conditions in past years. The results will help you decide how hot, cold, wet, or windy it might be!

Date:

Astronomy

Feb. 17, 2013 Rise Set
Actual Time 6:51 AM PST 5:24 PM PST
Civil Twilight 6:21 AM PST 5:54 PM PST
Nautical Twilight 5:46 AM PST 6:29 PM PST
Astronomical Twilight 5:12 AM PST 7:03 PM PST
Moon 10:24 AM PST (2/17) 12:47 AM PST (2/17)
Length of Visible Light 11h 33m
Length of Day
10h 32m
Waxing Crescent, 50% of the Moon is Illuminated
Feb 17
Waxing Crescent
Feb 17
First Quarter
Feb 25
Full
Mar 4
Last Quarter
Mar 11
New

Hourly Weather History & Observations

Time (PST) Temp. Windchill Dew Point Humidity Pressure Visibility Wind Dir Wind Speed Gust Speed Precip Events Conditions
12:07 AM 30.2 °F 24.3 °F 24.8 °F 80% 30.03 in 10.0 mi Variable 5.8 mph - N/A   Scattered Clouds
12:15 AM 30.2 °F 25.4 °F 24.8 °F 80% 30.03 in 10.0 mi Variable 4.6 mph - N/A   Mostly Cloudy
12:56 AM 30.9 °F 26.2 °F 24.1 °F 76% 30.08 in 10.0 mi Variable 4.6 mph - N/A   Overcast
1:56 AM 30.0 °F - 24.1 °F 79% 30.10 in 10.0 mi Calm Calm - N/A   Overcast
2:56 AM 30.0 °F 25.2 °F 24.1 °F 79% 30.10 in 10.0 mi Variable 4.6 mph - N/A   Overcast
3:56 AM 30.0 °F 25.2 °F 24.1 °F 79% 30.10 in 10.0 mi Variable 4.6 mph - N/A   Overcast
4:56 AM 28.9 °F 23.9 °F 23.0 °F 78% 30.12 in 10.0 mi Variable 4.6 mph - N/A   Overcast
5:56 AM 28.9 °F - 23.0 °F 78% 30.11 in 10.0 mi Calm Calm - N/A   Overcast
6:09 AM 28.4 °F 23.3 °F 21.2 °F 74% 30.04 in 10.0 mi Variable 4.6 mph - N/A   Mostly Cloudy
6:56 AM 28.0 °F 22.8 °F 21.9 °F 78% 30.14 in 10.0 mi Variable 4.6 mph - N/A   Overcast
7:56 AM 28.0 °F - 21.9 °F 78% 30.15 in 10.0 mi Calm Calm - N/A   Mostly Cloudy
8:56 AM 30.9 °F 27.5 °F 21.9 °F 69% 30.15 in 10.0 mi Variable 3.5 mph - N/A   Clear
9:56 AM 32.0 °F 28.7 °F 21.9 °F 66% 30.15 in 10.0 mi Variable 3.5 mph - N/A   Mostly Cloudy
10:56 AM 33.1 °F - 21.9 °F 64% 30.16 in 10.0 mi Calm Calm - N/A   Overcast
11:56 AM 33.1 °F - 23.0 °F 66% 30.17 in 10.0 mi Calm Calm - N/A   Overcast
12:34 PM 33.8 °F 29.6 °F 21.2 °F 60% 30.08 in 10.0 mi Variable 4.6 mph - N/A   Overcast
12:56 PM 34.0 °F - 21.9 °F 61% 30.14 in 10.0 mi Calm Calm - N/A   Overcast
1:56 PM 35.1 °F 30.1 °F 21.0 °F 57% 30.13 in 10.0 mi WNW 5.8 mph - N/A   Overcast
2:56 PM 36.0 °F - 21.0 °F 55% 30.12 in 10.0 mi Calm Calm - N/A   Overcast
3:56 PM 36.0 °F - 21.0 °F 55% 30.12 in 10.0 mi Calm Calm - N/A   Mostly Cloudy
4:56 PM 33.1 °F - 19.9 °F 59% 30.12 in 10.0 mi Calm Calm - N/A   Scattered Clouds
5:56 PM 28.0 °F - 21.0 °F 75% 30.13 in 10.0 mi Calm Calm - N/A   Mostly Cloudy
6:56 PM 27.0 °F - 21.0 °F 78% 30.14 in 10.0 mi Calm Calm - N/A   Mostly Cloudy
7:56 PM 25.0 °F - 19.9 °F 81% 30.13 in 10.0 mi Calm Calm - N/A   Clear
8:56 PM 23.0 °F - 19.0 °F 85% 30.14 in 10.0 mi Calm Calm - N/A   Clear
9:56 PM 21.0 °F - 18.0 °F 88% 30.12 in 10.0 mi Calm Calm - N/A   Clear
10:56 PM 19.9 °F - 17.1 °F 89% 30.12 in 10.0 mi Calm Calm - N/A   Clear
11:56 PM 18.0 °F - 15.1 °F 88% 30.11 in 10.0 mi Calm Calm - N/A   Clear